Location: Bothwell
(42.3833°S, 147.0000°E)
Time: 03:27:28
(UTC+11:00)

LilacSat-2 - Pass Details

Date: 01 October 2022
Orbit: 504 x 526 km, 97.5° (Epoch: 30 November)

Event Time Altitude Azimuth Distance (km) Brightness Sun altitude
Rises 04:54:58 0° 25° (NNE) 2,665 ? -10.2°
Reaches altitude 10° 04:57:06 10° 30° (NNE) 1,783 ? -9.8°
Maximum altitude 05:00:51 52° 106° (ESE) 675 ? -9.1°
Drops below altitude 10° 05:04:38 10° 182° (S) 1,801 ? -8.4°
Sets 05:06:48 0° 187° (S) 2,696 ? -8.1°
